Voltar ao catálogo

SL-12 DEB

LostHEO
NORAD 41701·DEBRIS·🇷🇺 Russia

Lançado Mar 1, 2010 de Baikonur Cosmodrome

Loading…

Próximas Passagens (próximas 24 horas)

TLE

ObsoletoSource: Space-Track

Época: Nov 7, 2021, 00:48 UTC

1 41701U 10007T   21311.03351998  .00007533  00000-0  95460-1 0  9990
2 41701  65.0134 171.2562 5646613 358.4967   0.4580  4.14125389109500

Acompanhe SL-12 DEB em tempo real com AllMySat

Download on the App Store